Hourly Weather Barra Bonita

Today, 8 May, Saturday

Time Temperature Precipitation Wind Pressure Humidity
00:00 +15°C° 0 mm 5 mps 726 mmHg 91%
01:00 +16°C° 0 mm 5 mps 726 mmHg 89%
02:00 +16°C° 0 mm 5 mps 726 mmHg 86%
03:00 +16°C° 0 mm 5 mps 726 mmHg 82%
04:00 +16°C° 0 mm 5 mps 726 mmHg 85%
05:00 +15°C° 0 mm 5 mps 726 mmHg 89%
06:00 +15°C° 0 mm 5 mps 726 mmHg 92%
07:00 +16°C° 0 mm 5 mps 727 mmHg 83%
08:00 +19°C° 0 mm 5 mps 727 mmHg 74%
09:00 +21°C° 0 mm 6 mps 728 mmHg 65%
10:00 +23°C° 0 mm 5 mps 728 mmHg 58%
11:00 +26°C° 0 mm 5 mps 728 mmHg 51%
12:00 +28°C° 0 mm 4 mps 728 mmHg 44%
13:00 +28°C° 0 mm 4 mps 727 mmHg 42%
14:00 +29°C° 0 mm 3 mps 726 mmHg 40%
15:00 +29°C° 0 mm 3 mps 726 mmHg 38%
16:00 +27°C° 0 mm 4 mps 726 mmHg 45%
17:00 +25°C° 0 mm 4 mps 726 mmHg 52%
18:00 +23°C° 0 mm 5 mps 726 mmHg 59%
19:00 +21°C° 0 mm 5 mps 726 mmHg 68%
20:00 +19°C° 0 mm 5 mps 727 mmHg 77%
21:00 +17°C° 0 mm 6 mps 727 mmHg 86%
22:00 +16°C° 0 mm 5 mps 727 mmHg 86%
23:00 +16°C° 0 mm 5 mps 727 mmHg 86%

Tomorrow, 9 May, Sunday

Time Temperature Precipitation Wind Pressure Humidity
00:00 +16°C° 0 mm 5 mps 727 mmHg 86%
01:00 +16°C° 0 mm 5 mps 726 mmHg 87%
02:00 +16°C° 0 mm 5 mps 726 mmHg 88%
03:00 +15°C° 0 mm 5 mps 726 mmHg 89%
04:00 +15°C° 0 mm 4 mps 726 mmHg 90%
05:00 +15°C° 0 mm 4 mps 726 mmHg 92%
06:00 +14°C° 0 mm 3 mps 726 mmHg 93%
07:00 +17°C° 0 mm 4 mps 727 mmHg 84%
08:00 +19°C° 0 mm 4 mps 728 mmHg 75%
09:00 +21°C° 0 mm 4 mps 728 mmHg 67%
10:00 +23°C° 0 mm 4 mps 728 mmHg 60%
11:00 +26°C° 0 mm 3 mps 728 mmHg 53%
12:00 +28°C° 0 mm 3 mps 727 mmHg 46%
13:00 +29°C° 0 mm 3 mps 727 mmHg 44%
14:00 +29°C° 0 mm 2 mps 726 mmHg 42%
15:00 +30°C° 0 mm 2 mps 725 mmHg 39%
16:00 +28°C° 0 mm 2 mps 725 mmHg 45%
17:00 +27°C° 0 mm 2 mps 725 mmHg 50%
18:00 +25°C° 0 mm 3 mps 725 mmHg 55%
19:00 +24°C° 0 mm 3 mps 725 mmHg 62%
20:00 +22°C° 0 mm 4 mps 726 mmHg 68%
21:00 +20°C° 0 mm 5 mps 726 mmHg 75%
22:00 +19°C° 0 mm 5 mps 726 mmHg 80%
23:00 +18°C° 0 mm 4 mps 726 mmHg 84%

Day after tomorrow, 10 May, Monday

Time Temperature Precipitation Wind Pressure Humidity
00:00 +18°C° 0 mm 4 mps 726 mmHg 89%
01:00 +17°C° 0 mm 4 mps 726 mmHg 90%
02:00 +17°C° 0 mm 4 mps 725 mmHg 91%
03:00 +16°C° 0 mm 3 mps 725 mmHg 93%
04:00 +16°C° 0 mm 3 mps 725 mmHg 94%
05:00 +14°C° 0 mm 3 mps 725 mmHg 95%
06:00 +15°C° 0 mm 2 mps 726 mmHg 96%
07:00 +17°C° 0 mm 2 mps 726 mmHg 86%
08:00 +19°C° 0 mm 3 mps 727 mmHg 77%
09:00 +21°C° 0 mm 3 mps 727 mmHg 67%
10:00 +25°C° 0 mm 3 mps 727 mmHg 58%
11:00 +27°C° 0 mm 2 mps 727 mmHg 50%
12:00 +29°C° 0 mm 2 mps 726 mmHg 41%
13:00 +30°C° 0 mm 1 mps 726 mmHg 39%
14:00 +31°C° 0 mm 1 mps 725 mmHg 37%
15:00 +32°C° 0 mm 1 mps 724 mmHg 35%
16:00 +29°C° 0 mm 1 mps 724 mmHg 41%
17:00 +27°C° 0 mm 1 mps 724 mmHg 48%
18:00 +25°C° 0 mm 1 mps 723 mmHg 54%
19:00 +24°C° 0 mm 2 mps 724 mmHg 58%
20:00 +23°C° 0 mm 2 mps 724 mmHg 62%
21:00 +21°C° 0 mm 2 mps 724 mmHg 67%
22:00 +20°C° 0 mm 2 mps 724 mmHg 71%
23:00 +19°C° 0 mm 2 mps 724 mmHg 74%

11 May, Tuesday

Time Temperature Precipitation Wind Pressure Humidity
00:00 +18°C° 0 mm 2 mps 724 mmHg 78%
01:00 +18°C° 0 mm 2 mps 723 mmHg 82%
02:00 +17°C° 0 mm 2 mps 723 mmHg 86%
03:00 +16°C° 0 mm 1 mps 723 mmHg 89%
04:00 +16°C° 0 mm 1 mps 723 mmHg 90%
05:00 +16°C° 0 mm 1 mps 723 mmHg 91%
06:00 +16°C° 0 mm 1 mps 723 mmHg 92%
07:00 +19°C° 0 mm 1 mps 724 mmHg 81%
08:00 +22°C° 0 mm 1 mps 724 mmHg 69%
09:00 +24°C° 0 mm 1 mps 724 mmHg 58%
10:00 +27°C° 0 mm 1 mps 724 mmHg 50%
11:00 +29°C° 0 mm 1 mps 724 mmHg 42%
12:00 +32°C° 0 mm 1 mps 723 mmHg 34%
13:00 +32°C° 0 mm 2 mps 723 mmHg 32%
14:00 +34°C° 0 mm 2 mps 722 mmHg 29%
15:00 +34°C° 0 mm 3 mps 721 mmHg 27%
16:00 +31°C° 0 mm 2 mps 721 mmHg 32%
17:00 +28°C° 0 mm 2 mps 721 mmHg 38%
18:00 +26°C° 0 mm 1 mps 721 mmHg 43%
19:00 +25°C° 0 mm 1 mps 721 mmHg 44%
20:00 +24°C° 0 mm 1 mps 721 mmHg 46%
21:00 +23°C° 0 mm 1 mps 722 mmHg 47%
22:00 +22°C° 0 mm 1 mps 721 mmHg 49%
23:00 +22°C° 0 mm 1 mps 721 mmHg 52%

12 May, Wednesday

Time Temperature Precipitation Wind Pressure Humidity
00:00 +21°C° 0 mm 1 mps 721 mmHg 54%
01:00 +20°C° 0 mm 1 mps 721 mmHg 57%
02:00 +20°C° 0 mm 1 mps 720 mmHg 60%
03:00 +19°C° 0 mm 1 mps 720 mmHg 63%
04:00 +19°C° 0 mm 1 mps 720 mmHg 64%
05:00 +19°C° 0 mm 1 mps 720 mmHg 66%
06:00 +18°C° 0 mm 1 mps 721 mmHg 67%
07:00 +21°C° 0 mm 1 mps 721 mmHg 61%
08:00 +23°C° 0 mm 1 mps 722 mmHg 54%
09:00 +25°C° 0 mm 1 mps 722 mmHg 47%
10:00 +27°C° 0 mm 2 mps 722 mmHg 41%
11:00 +29°C° 0 mm 2 mps 722 mmHg 36%
12:00 +33°C° 0 mm 3 mps 722 mmHg 30%
13:00 +33°C° 0 mm 4 mps 721 mmHg 30%
14:00 +33°C° 0 mm 4 mps 721 mmHg 30%
15:00 +33°C° 0 mm 5 mps 720 mmHg 30%
16:00 +29°C° 0 mm 4 mps 721 mmHg 44%
17:00 +26°C° 0 mm 4 mps 721 mmHg 58%
18:00 +22°C° 0 mm 4 mps 722 mmHg 72%
19:00 +21°C° 0 mm 4 mps 722 mmHg 76%
20:00 +20°C° 0 mm 3 mps 722 mmHg 80%
21:00 +19°C° 0 mm 3 mps 723 mmHg 84%
22:00 +18°C° 0 mm 2 mps 723 mmHg 87%
23:00 +18°C° 0 mm 2 mps 723 mmHg 91%

13 May, Thursday

Time Temperature Precipitation Wind Pressure Humidity
00:00 +17°C° 0 mm 2 mps 722 mmHg 94%
01:00 +17°C° 0 mm 2 mps 722 mmHg 95%
02:00 +16°C° 0 mm 2 mps 722 mmHg 96%
03:00 +16°C° 0 mm 2 mps 722 mmHg 97%
04:00 +16°C° 0 mm 2 mps 722 mmHg 96%
05:00 +15°C° 0 mm 2 mps 723 mmHg 96%
06:00 +14°C° 0 mm 3 mps 723 mmHg 95%
07:00 +16°C° 0 mm 3 mps 723 mmHg 87%
08:00 +18°C° 0 mm 3 mps 724 mmHg 78%
09:00 +19°C° 0 mm 3 mps 725 mmHg 70%
10:00 +22°C° 0 mm 3 mps 724 mmHg 56%
11:00 +25°C° 0 mm 2 mps 724 mmHg 42%
12:00 +27°C° 0 mm 2 mps 724 mmHg 28%
13:00 +28°C° 0 mm 2 mps 724 mmHg 24%
14:00 +29°C° 0 mm 2 mps 723 mmHg 21%
15:00 +30°C° 0 mm 2 mps 723 mmHg 17%
16:00 +27°C° 0 mm 2 mps 723 mmHg 21%
17:00 +24°C° 0 mm 2 mps 723 mmHg 25%
18:00 +21°C° 0 mm 2 mps 723 mmHg 30%
19:00 +19°C° 0 mm 2 mps 723 mmHg 36%
20:00 +17°C° 0 mm 2 mps 724 mmHg 42%
21:00 +15°C° 0 mm 2 mps 724 mmHg 48%
22:00 +14°C° 0 mm 2 mps 724 mmHg 56%
23:00 +14°C° 0 mm 2 mps 724 mmHg 64%
Show more